Miscellaneous Local Product
Issued by NWS North Platte, NE

Home | Current Version | Previous Version | Text Only | Print | Product List | Glossary On
Versions: 1 2 3 4 5 6 7 8 9 10 11 12 13 14 15 16 17 18 19 20 21 22 23 24 25 26 27 28 29 30 31 32 33 34 35 36 37 38 39 40 41 42 43 44 45 46 47 48 49 50
000
AXUS43 KLBF 161710
MISLBF


WESTERN AND NORTH CENTRAL NEBRASKA HOURLY WEATHER ROUNDUP
NATIONAL WEATHER SERVICE NORTH PLATTE NE
1100 AM CST TUE JAN 16 2018

NOTE: "FAIR" INDICATES FEW OR NO CLOUDS BELOW 12,000 FEET WITH NO
SIGNIFICANT WEATHER AND/OR OBSTRUCTIONS TO VISIBILITY.

NOTE: STATIONS NOT REPORTING VARIABLES SUCH AS SKY/WEATHER OR
PRESSURE ARE PROVIDED BY RAWS AND APRS NETWORKS AND ARE NOT UNDER
NATIONAL WEATHER SERVICE QUALITY CONTROL.

...OBSERVATIONS IN AND NEAR THE EASTERN PANHANDLE OF NEBRASKA...

CITY           SKY/WX    TMP DP  RH WIND       PRES   REMARKS
PINE RIDGE     SUNNY      5  -1  76 CALM      30.53F
GORDON         FAIR       5  -4  66 SW7       30.52F WCI  -7
CHADRON        SUNNY      7   0  73 CALM      30.52F
ALLIANCE       SUNNY     -3  -6  87 S3        30.51F
SIDNEY         SUNNY     14   2  58 W8        30.51S WCI   3
CRESCENT LAKE    N/A      8   0  69 S5          N/A  WCI   0
$$

...OBSERVATIONS IN NORTHERN NEBRASKA AND FAR SOUTHERN SOUTH DAKOTA...

CITY           SKY/WX    TMP DP  RH WIND       PRES   REMARKS
WINNER         FAIR       2 -10  57 SW6       30.68F WCI  -9
VALENTINE      SUNNY      2  -8  63 SW8       30.64F WCI -12
AINSWORTH      SUNNY      2  -9  58 W3        30.66S
O`NEILL        SUNNY     -1  -8  72 NW10      30.72R WCI -17
THEDFORD       SUNNY      3 -11  52 W3        30.64F
BROKEN BOW     SUNNY      2  -9  60 N5        30.69R WCI  -8
ORD            MOSUNNY    0  -4  83 NW10      30.72F WCI -16
ALBION         SUNNY      5  -3  68 NW14      30.73F WCI -12
VALENTINE NWR    N/A      2 -13  50 W5          N/A  WCI  -7
HALSEY           N/A      3 -17  39 NW5         N/A  WCI  -6
BUTTE            N/A     -1  -8  72 W3          N/A
CHAMBERS         N/A      3  -8  60 N3          N/A
EWING            N/A      0  -6  75 NW9         N/A  WCI -15
$$

...OBSERVATIONS IN SOUTHWEST NEBRASKA AND FAR NORTHEAST COLORADO...

CITY           SKY/WX    TMP DP  RH WIND       PRES   REMARKS
WRAY           FAIR      10   3  72 MISG      30.60F
HOLYOKE        FAIR      14   5  67 CALM      30.59R
IMPERIAL       SUNNY      7  -2  66 W3        30.63S
OGALLALA       SUNNY      7  -1  70 CALM      30.63S
NORTH PLATTE   SUNNY      4  -8  57 NW3       30.68R
MCCOOK         SUNNY      7  -4  60 NW7       30.71S WCI  -5
LEXINGTON      SUNNY      5  -6  61 NW7       30.71S WCI  -7
STAPLETON        N/A      2  -9  60 CALM        N/A
GOTHENBURG       N/A      4  -7  61 NW5         N/A  WCI  -5
CALLAWAY         N/A      3  -5  68 N3          N/A
$$

...OBSERVATIONS IN CENTRAL LINCOLN COUNTY AREA...

CITY           SKY/WX    TMP DP  RH WIND       PRES   REMARKS
N.P. AIRPORT   SUNNY      4  -8  57 NW3       30.68R
N.P. DOWNTOWN    N/A      4  -7  60 CALM        N/A
N.P. SOUTHEAST   N/A      3  -9  57 CALM        N/A
N.P. HILLCREST   N/A      5  -6  61 CALM        N/A
$$

...SOME OBSERVATIONS FROM AROUND THE REGION...

CITY           SKY/WX    TMP DP  RH WIND       PRES   REMARKS
DENVER         MOSUNNY   19   7  59 SW5       30.43S WCI  12
BERTHOUD PASS  FAIR      10  -2  56 NW15      30.29R WCI  -6
GRAND JUNCTION SUNNY     30  14  51 S9        30.45R WCI  22
LARAMIE        SUNNY     17  -3  41 S6        30.34S WCI   9
CHEYENNE       SUNNY     20   5  52 SW6       30.36F WCI  12
CASPER         SUNNY    N/A N/A N/A MISG      30.36S
BISMARCK       SUNNY    -10 -17  71 E3        30.61F
RAPID CITY     SUNNY     -2  -7  79 SE10      30.46F WCI -19
PIERRE         SUNNY     -1 -11  62 S7        30.69F WCI -14
SIOUX FALLS    PTSUNNY   -3  -9  75 NW8       30.73S WCI -18
OMAHA          FLURRIES   2  -5  72 NW13      30.78S WCI -15
GRAND ISLAND   SUNNY      4  -2  76 NW13      30.75R WCI -13
SCOTTSBLUFF    SUNNY      0  -5  79 CALM      30.52F
KANSAS CITY    MOSUNNY    4  -5  66 NW15      30.76R WCI -14
HILL CITY      SUNNY      8  -2  63 NW12      30.76R WCI  -7
WICHITA        MOSUNNY    8  -1  66 NW15      30.81R WCI  -9
DODGE CITY     SUNNY      8  -4  58 N12       30.73S WCI  -7
OKLAHOMA CITY  MOSUNNY   12  -4  48 NW17      30.82F WCI  -5
DALLAS         MOSUNNY   23   4  44 N15       30.81F WCI  10
AMARILLO       SUNNY     15  -4  42 N14       30.68R WCI   0
$$




USA.gov is the U.S. government's official web portal to all federal, state and local government web resources and services.